• In Hungary
  • List of Countries
  • For 7 days
  • Water Temperature
  • Satellite Maps
  • Weather Map
  • News
  • Weather Widgets
  • user-avatar
    Login

    Hourly Weather Pune

    Today, 20 August, Sunday

    Time Temperature Precipitation Wind Pressure Humidity
    00:00 +23°C° 0 mm 4 mps 707 mmHg 90%
    01:00 +23°C° 0 mm 4 mps 707 mmHg 90%
    02:00 +23°C° 0 mm 4 mps 706 mmHg 90%
    03:00 +23°C° 0.4 mm 4 mps 706 mmHg 90%
    04:00 +23°C° 0.4 mm 4 mps 706 mmHg 90%
    05:00 +23°C° 0 mm 5 mps 705 mmHg 90%
    06:00 +23°C° 3 mm 5 mps 706 mmHg 90%
    07:00 +23°C° 3 mm 6 mps 706 mmHg 91%
    08:00 +23°C° 3 mm 6 mps 706 mmHg 91%
    09:00 +23°C° 4.3 mm 6 mps 706 mmHg 91%
    10:00 +23°C° 4.3 mm 6 mps 706 mmHg 91%
    11:00 +23°C° 0 mm 6 mps 706 mmHg 93%
    12:00 +23°C° 3.8 mm 6 mps 706 mmHg 92%
    13:00 +23°C° 3.8 mm 6 mps 706 mmHg 92%
    14:00 +23°C° 3.8 mm 5 mps 705 mmHg 91%
    15:00 +22°C° 2.9 mm 5 mps 705 mmHg 91%
    16:00 +22°C° 2.9 mm 5 mps 705 mmHg 91%
    17:00 +22°C° 2.9 mm 5 mps 705 mmHg 90%
    18:00 +22°C° 1.1 mm 6 mps 705 mmHg 90%
    19:00 +22°C° 1.1 mm 6 mps 705 mmHg 89%
    20:00 +22°C° 1.1 mm 6 mps 705 mmHg 89%
    21:00 +22°C° 0.7 mm 6 mps 705 mmHg 89%
    22:00 +22°C° 0.7 mm 6 mps 705 mmHg 89%
    23:00 +22°C° 0.7 mm 6 mps 705 mmHg 89%

    Tomorrow, 21 August, Monday

    Time Temperature Precipitation Wind Pressure Humidity
    00:00 +22°C° 2.6 mm 6 mps 705 mmHg 90%
    01:00 +22°C° 2.6 mm 6 mps 705 mmHg 91%
    02:00 +22°C° 2.6 mm 6 mps 704 mmHg 92%
    03:00 +22°C° 3.8 mm 6 mps 704 mmHg 92%
    04:00 +22°C° 3.8 mm 6 mps 704 mmHg 92%
    05:00 +22°C° 3.8 mm 5 mps 704 mmHg 92%
    06:00 +22°C° 3.2 mm 6 mps 704 mmHg 92%
    07:00 +22°C° 3.2 mm 6 mps 705 mmHg 92%
    08:00 +22°C° 3.2 mm 6 mps 705 mmHg 92%
    09:00 +22°C° 2.4 mm 5 mps 705 mmHg 92%
    10:00 +22°C° 2.4 mm 5 mps 705 mmHg 91%
    11:00 +22°C° 2.4 mm 5 mps 706 mmHg 91%
    12:00 +22°C° 1.8 mm 5 mps 705 mmHg 91%
    13:00 +22°C° 1.8 mm 5 mps 705 mmHg 91%
    14:00 +22°C° 1.8 mm 5 mps 704 mmHg 91%
    15:00 +22°C° 0.4 mm 5 mps 704 mmHg 91%
    16:00 +22°C° 0.4 mm 4 mps 704 mmHg 91%
    17:00 +22°C° 0.4 mm 4 mps 704 mmHg 91%
    18:00 +22°C° 0.1 mm 4 mps 704 mmHg 91%
    19:00 +22°C° 0.1 mm 4 mps 705 mmHg 92%
    20:00 +22°C° 0.1 mm 3 mps 705 mmHg 92%
    21:00 +22°C° 0 mm 3 mps 705 mmHg 92%
    22:00 +22°C° 0 mm 3 mps 705 mmHg 93%
    23:00 +22°C° 0 mm 3 mps 705 mmHg 93%

    Day after tomorrow, 22 August, Tuesday

    Time Temperature Precipitation Wind Pressure Humidity
    00:00 +22°C° 0 mm 3 mps 705 mmHg 93%
    01:00 +22°C° 0 mm 3 mps 705 mmHg 94%
    02:00 +22°C° 0 mm 3 mps 704 mmHg 94%
    03:00 +22°C° 0 mm 3 mps 704 mmHg 94%
    04:00 +21°C° 0 mm 2 mps 704 mmHg 94%
    05:00 +21°C° 0 mm 2 mps 704 mmHg 95%
    06:00 +22°C° 0 mm 3 mps 705 mmHg 92%
    07:00 +24°C° 0 mm 3 mps 706 mmHg 89%
    08:00 +25°C° 0 mm 3 mps 706 mmHg 86%
    09:00 +26°C° 0 mm 4 mps 706 mmHg 82%
    10:00 +27°C° 0 mm 4 mps 707 mmHg 77%
    11:00 +28°C° 0 mm 5 mps 707 mmHg 73%
    12:00 +29°C° 0.1 mm 5 mps 707 mmHg 71%
    13:00 +29°C° 0.1 mm 5 mps 706 mmHg 70%
    14:00 +30°C° 0.1 mm 6 mps 706 mmHg 68%
    15:00 +29°C° 0.1 mm 6 mps 706 mmHg 71%
    16:00 +28°C° 0.1 mm 6 mps 705 mmHg 73%
    17:00 +27°C° 0.1 mm 6 mps 705 mmHg 76%
    18:00 +27°C° 0 mm 5 mps 706 mmHg 80%
    19:00 +26°C° 0 mm 4 mps 706 mmHg 84%
    20:00 +25°C° 0 mm 4 mps 707 mmHg 87%
    21:00 +25°C° 0 mm 3 mps 707 mmHg 88%
    22:00 +24°C° 0 mm 3 mps 707 mmHg 89%
    23:00 +24°C° 0 mm 3 mps 708 mmHg 90%

    23 August, Wednesday

    Time Temperature Precipitation Wind Pressure Humidity
    00:00 +24°C° 0 mm 3 mps 707 mmHg 90%
    01:00 +24°C° 0 mm 3 mps 707 mmHg 90%
    02:00 +24°C° 0 mm 3 mps 707 mmHg 90%
    03:00 +24°C° 0 mm 3 mps 707 mmHg 91%
    04:00 +24°C° 0 mm 3 mps 706 mmHg 91%
    05:00 +24°C° 0 mm 3 mps 706 mmHg 92%
    06:00 +24°C° 0 mm 3 mps 707 mmHg 89%
    07:00 +25°C° 0 mm 4 mps 708 mmHg 86%
    08:00 +26°C° 0 mm 4 mps 709 mmHg 83%
    09:00 +27°C° 0 mm 4 mps 709 mmHg 78%
    10:00 +28°C° 0 mm 5 mps 709 mmHg 74%
    11:00 +29°C° 0 mm 5 mps 709 mmHg 69%
    12:00 +29°C° 0.1 mm 5 mps 709 mmHg 68%
    13:00 +30°C° 0.1 mm 5 mps 708 mmHg 67%
    14:00 +30°C° 0.1 mm 6 mps 707 mmHg 66%
    15:00 +29°C° 0.1 mm 6 mps 707 mmHg 69%
    16:00 +29°C° 0.1 mm 5 mps 707 mmHg 72%
    17:00 +28°C° 0.1 mm 5 mps 707 mmHg 74%
    18:00 +27°C° 0 mm 5 mps 707 mmHg 78%
    19:00 +26°C° 0 mm 4 mps 708 mmHg 82%
    20:00 +25°C° 0 mm 4 mps 708 mmHg 87%
    21:00 +25°C° 0 mm 4 mps 709 mmHg 87%
    22:00 +25°C° 0 mm 3 mps 709 mmHg 88%
    23:00 +25°C° 0 mm 3 mps 709 mmHg 89%

    24 August, Thursday

    Time Temperature Precipitation Wind Pressure Humidity
    00:00 +24°C° 0 mm 3 mps 708 mmHg 89%
    01:00 +24°C° 0 mm 3 mps 708 mmHg 89%
    02:00 +24°C° 0 mm 3 mps 708 mmHg 89%
    03:00 +24°C° 0 mm 3 mps 707 mmHg 90%
    04:00 +24°C° 0 mm 3 mps 707 mmHg 90%
    05:00 +24°C° 0 mm 3 mps 707 mmHg 91%
    06:00 +25°C° 0 mm 3 mps 708 mmHg 88%
    07:00 +25°C° 0 mm 3 mps 708 mmHg 86%
    08:00 +26°C° 0 mm 4 mps 709 mmHg 83%
    09:00 +27°C° 0 mm 4 mps 709 mmHg 79%
    10:00 +28°C° 0 mm 4 mps 709 mmHg 75%
    11:00 +29°C° 0 mm 5 mps 709 mmHg 71%
    12:00 +29°C° 0.2 mm 5 mps 708 mmHg 70%
    13:00 +30°C° 0.2 mm 5 mps 708 mmHg 69%
    14:00 +30°C° 0.2 mm 6 mps 707 mmHg 68%
    15:00 +29°C° 0.1 mm 6 mps 707 mmHg 71%
    16:00 +29°C° 0.1 mm 6 mps 707 mmHg 74%
    17:00 +28°C° 0.1 mm 6 mps 707 mmHg 76%
    18:00 +27°C° 0 mm 5 mps 707 mmHg 80%
    19:00 +26°C° 0 mm 5 mps 708 mmHg 83%
    20:00 +25°C° 0 mm 4 mps 708 mmHg 87%
    21:00 +25°C° 0 mm 4 mps 708 mmHg 87%
    22:00 +25°C° 0 mm 4 mps 708 mmHg 88%
    23:00 +25°C° 0 mm 3 mps 709 mmHg 89%

    25 August, Friday

    Time Temperature Precipitation Wind Pressure Humidity
    00:00 +25°C° 0 mm 3 mps 708 mmHg 89%
    01:00 +24°C° 0 mm 3 mps 708 mmHg 89%
    02:00 +24°C° 0 mm 3 mps 707 mmHg 89%
    03:00 +24°C° 0 mm 3 mps 707 mmHg 90%
    04:00 +24°C° 0 mm 3 mps 707 mmHg 90%
    05:00 +24°C° 0 mm 3 mps 707 mmHg 90%
    06:00 +25°C° 0 mm 3 mps 707 mmHg 88%
    07:00 +25°C° 0 mm 3 mps 708 mmHg 85%
    08:00 +26°C° 0 mm 4 mps 708 mmHg 83%
    09:00 +27°C° 0 mm 4 mps 708 mmHg 78%
    10:00 +28°C° 0 mm 5 mps 708 mmHg 72%
    11:00 +30°C° 0 mm 5 mps 708 mmHg 67%
    12:00 +30°C° 0.3 mm 5 mps 708 mmHg 67%
    13:00 +30°C° 0.3 mm 6 mps 707 mmHg 66%
    14:00 +30°C° 0.3 mm 6 mps 706 mmHg 66%
    15:00 +30°C° 0.3 mm 6 mps 706 mmHg 69%
    16:00 +29°C° 0.3 mm 6 mps 706 mmHg 71%
    17:00 +28°C° 0.3 mm 6 mps 706 mmHg 74%
    18:00 +27°C° 0 mm 5 mps 706 mmHg 78%
    19:00 +26°C° 0 mm 5 mps 707 mmHg 81%
    20:00 +25°C° 0 mm 4 mps 707 mmHg 85%
    21:00 +25°C° 0 mm 4 mps 707 mmHg 86%
    22:00 +25°C° 0 mm 4 mps 707 mmHg 86%
    23:00 +25°C° 0 mm 3 mps 707 mmHg 87%
    Show more